Location: Seattle
(47.6064°N, 122.3308°W)
Time: 00:52:29
(UTC-08:00)

Tiros 1 - Pass Details

Date: 29 November 2020
Orbit: 630 x 663 km, 48.4° (Epoch: 28 January)

Event Time Altitude Azimuth Distance (km) Brightness Sun altitude
Rises 20:23:25 0° 286° (WNW) 2,986 11.4 -40.1°
Reaches altitude 10° 20:25:51 10° 280° (W) 2,067 10.4 -40.5°
Enters shadow 20:26:09 12° 279° (W) 1,955 10.2 -40.6°
Maximum altitude 20:30:22 44° 209° (SSW) 900 - -41.3°
Drops below altitude 10° 20:34:50 10° 138° (SE) 2,039 - -42.0°
Sets 20:37:13 0° 132° (SE) 2,941 - -42.4°
